Regional Weather Roundup
Issued by NWS Green Bay, WI

Home | Current Version | Previous Version | Graphics & Text | Print | Product List | Glossary Off
Versions: 1 2 3 4 5 6 7 8 9 10 11 12 13 14 15 16 17 18 19 20 21 22 23 24 25 26 27 28 29 30 31 32 33 34 35 36 37 38 39 40 41 42 43 44 45 46 47 48 49 50

000
ASUS43 KGRB 260710
RWRGRB

NORTH-CENTRAL AND NORTHEAST WISCONSIN REGIONAL WEATHER ROUNDUP
NATIONAL WEATHER SERVICE GREEN BAY WI
200 AM CDT SUN APR 26 2015

WIZ005-009-010>012-018-019-260800-
NORTH CENTRAL WISCONSIN

CITY           SKY/WX    TMP DP  RH WIND       PRES   REMARKS
IRONWOOD       CLEAR     27  25  93 CALM      30.03S
MANITOWISH WTR CLEAR     26  21  82 CALM      30.02R
ARBOR VITAE    CLEAR     32  21  65 N5        30.02R
EAGLE RIVER    CLEAR     27  19  74 CALM      30.01S
LAND O LAKES   CLEAR     30  19  62 N3        30.03R
RHINELANDER    CLEAR     31  20  63 N5        30.01R
PHILLIPS       CLEAR     31  22  70 N5        30.01R
ANTIGO         CLEAR     31  22  68 N6        29.99R
TOMAHAWK       CLEAR     29  22  76 CALM      30.01S
MERRILL        CLEAR     32  21  63 NE6       30.00R
$$

WIZ013-073-260800-
NORTHEAST WISCONSIN

CITY           SKY/WX    TMP DP  RH WIND       PRES   REMARKS
IRON MOUNTAIN  CLEAR     30  17  58 CALM      29.99S
MARINETTE      CLEAR     32  19  59 N5        29.99F
OCONTO         CLEAR     32  22  66 N3        30.00S
$$

WIZ017-030-035>037-045-260800-
CENTRAL WISCONSIN

CITY           SKY/WX    TMP DP  RH WIND       PRES   REMARKS
MEDFORD        CLEAR     33  22  66 CALM      30.00R
WAUSAU         CLEAR     35  21  56 N6        29.98R
MOSINEE        CLEAR     34  21  60 NE6       30.00R
MARSHFIELD     CLEAR     38  20  48 E5        29.98R
WISC RAPIDS    CLEAR     38  17  42 NE5       30.00R
STEVENS POINT  CLEAR     30  18  61 N3        30.00R
WAUPACA        CLEAR     37  22  55 CALM      29.99R
SHAWANO        CLEAR     38  22  53 NE10      30.00R
CLINTONVILLE   CLEAR     34  21  60 N6        29.99R
$$

WIZ038-039-048-051-260800-
FOX VALLEY

CITY           SKY/WX    TMP DP  RH WIND       PRES   REMARKS
NWS GREEN BAY  CLEAR     36  23  59 N10       29.98R
APPLETON       CLEAR     34  23  64 N10       29.96S
OSHKOSH        CLEAR     41  29  62 NE13      29.96R
FOND DU LAC    CLEAR     40  24  53 NE14      29.96R
$$

WIZ022-050-052-260800-
EAST CENTRAL WISCONSIN

CITY           SKY/WX    TMP DP  RH WIND       PRES   REMARKS
STURGEON BAY   CLEAR     34  23  64 N8        30.00R
MANITOWOC      CLEAR     38  28  67 NE8       29.97R
SHEBOYGAN      CLEAR     38  28  67 NE12      29.95R
$$

LMZ563-521-522-541>543-260800-
LAKESHORE

STATION/POSITION TIME  TEMP    WIND        PRES    VSBY  WAVE
                       AIR SEA DIR/SP/G                  HT/PER
                 (UTC) (F)     (DEG/KT/KT) (MB)    (MI)  (FT/S)
SHEBOYGAN LKSHOR 0700   39      20/ 15/ 19 1015.0R
KEWAUNEE LKSHORE 0700           30/ 10/ 16   N/A
NORTHPORT PIER   0700   37     330/  9/ 11 1015.6S
SISTER BAY LKSHO 0700   35        CALM       N/A
CHAMBERS ISLAND  0700   36     330/  9/ 11 1015.9S
MENOMINEE LKSHOR 0700          340/ 10/ 12   N/A
$$


USA.gov is the U.S. government's official web portal to all federal, state and local government web resources and services.